OPS 4682 DEB, 38388

Orbit data source: Space-Track

OPS 4682 DEB, 38388 is space debris in LEO originally from a launch on Sat, 03 Apr 1965 UTC launched from the Air Force Western Test Range (AFWTR). Debris objects in space refer to the collection of defunct objects orbiting the Earth. Examples of debris include non-operational satellites, rocket bodies, and fragments generated from explosions, collisions, or faulty payload assembly.

Loading next visibility...
Identifier
38388, 1965-027CR
Orbit
LEO
Country
Flag of USUS
Related business
Manufacturer
Unknown
Mission
Spacecraft
Bus & Motor
Unknown
Mass
Unknown
Launch date (UTC)
1965-04-03 (61 years ago)
Launch vehicle
Unknown
Launch site
Air Force Western Test Range (AFWTR)
Object type
Payload
Rocket body
Debris
Shape & HBR
Unknown shape, 0.1 m
Radar Cross Section
Small (<0.1 m²)

Expand to show TLE details & history
Last TLE update: 3 days ago

TLE from 3 days ago
0 OPS 4682 DEB
1 38388U 65027CR  26116.72575693  .00000367  00000-0  11806-2 0  9994
2 38388  90.2726  21.7492 0036134 120.0725 240.3988 13.00613735657378
Epoch: 2026-04-26T17:25Z
TLE epoch observation values (Epoch: 2026-04-26T17:25:05.398Z)
Latitude
-0.00011°
Longitude
-94.24894°
Altitude
1,276.278 km
Speed
7.211 km/s
True Right ascension
01h 26m 59s
True Declination
0° 00' 00"
Sunlit
Object was in daylight at epoch
Visualization orbit readout
Latitude
Unknown
Longitude
Unknown
Altitude
Unknown
Speed
Unknown
Apparent Right ascension
Unknown
Apparent Declination
Unknown
Sunlit
N/A
Visualization observer readout
Local Sidereal Time
05:44:26
Azimuth
Unknown
Elevation
Unknown
Doppler factor
Unknown
Orbital elements
Apogee altitude
1,284.397 km
Perigee altitude
1,229.221 km
Semi-major axis
7,634.946 km
Eccentricity
0.00361
Inclination
90.2726°
RAAN
21.7492°
Arg. of periapsis
120.0725°
True anomaly
240.03958°
Mean anomaly
240.3988°
Eccentric anomaly
240.21911°
Mean motion
3.25338 °/min
Orbital period
110.65 mins
BSTAR
0.0011806
Loading maneuver chart data...
Computing Atmospheric mass density...
Loading historical data...
Loading historical data...
Loading historical data...
Loading historical data...
Loading historical data...
Loading historical data...
Loading historical data...

Documentation

Showing up to 5 results
|